[[{"header":{"parameterUnit":"m.s-1","parameterCategory":1,"la1":30.2991,"la2":30.254,"lo1":-89.0895,"lo2":-89.0444,"dy":0.0017,"dx":0.0017,"nx":28,"ny":28,"refTime":"2023-09-10T21:00:00:Z","depth":0,"parameterNumber":2,"parameterNumberName":"U-component_of_WINDS"},"data":[0,0,0,0,0,0,0,0,0,0,0,0,0,0,0,0,0,0,0,0,0,0,0,0,0,0,0,0,0,0,0,0,0,0,0,0,0,0,0,0,0,0,0,0,0,0,0,0,0,0,0,0,0,0,0,0,0,0,0.9922,0.9923,0,0.9956,0.9956,0.9957,0.9969,0.9969,0.9969,0.9969,1.0,1.0001,1.0002,0,0,0,0,0,0,0,0,0,0,0,0,0,0.9865,0.9866,0.9922,0.9923,0.9923,0.9956,0.9956,0.9957,0.9969,0.9969,0.9969,0.9969,1.0,1.0001,1.0002,0,0,0,0,0,0,0,0,0,0,0,0,0,0.9893,0.9866,0.9922,0.9933,0.9935,0.9956,0.9956,0.9957,0.9969,0.9969,0.9969,0.9969,0.9999,1.0001,1.0002,1.0013,0,0,1.0006,1.0007,0,0,0,0,0,0,0,0,0.9891,0.9895,0.9931,0.9933,0.9934,0.9958,0.9947,0.9976,0.997,0.9956,0.9969,0.9969,0.9986,0.9989,0.9995,1.0015,1.0016,1.0006,1.0007,1.0008,1.0008,0,0,0,0,0,0,0,0.9889,0.9894,0.9935,0.9932,0.9934,0.9935,0.9939,0.9953,0.9971,0.9957,0.9958,0.9962,0.9987,0.9994,0.9996,1.0017,1.0006,1.0008,1.0008,1.0009,1.0046,1.0046,0,0,0,0,0,0,0.9886,0.9892,0.9934,0.9936,0.9912,0.9937,0.9941,0.9951,0.9971,0.9974,0.9962,0.9963,0.9991,0.9994,0.9997,1.0011,1.0008,1.0009,1.001,1.0046,1.0046,1.0046,0,0,0,0,0,0,0.9885,0.989,0.9933,0.9914,0.992,0.9938,0.9949,0.9951,0.9958,0.9975,0.9978,0.9966,0.9991,0.9995,1.0009,1.0012,1.001,1.0011,1.0046,1.0046,1.0046,1.004,0,0,0,0,0,0,0.9883,0.9889,0.9895,0.9915,0.9921,0.9946,0.9949,0.9952,0.9961,0.9962,0.998,0.9982,0.9992,1.0007,1.0011,1.0014,1.0012,1.0046,1.0046,1.0046,1.004,1.004,1.004,0,0,0,0,0,0.9881,0.9891,0.9895,0.99,0.9929,0.9946,0.995,0.9961,0.9961,0.9966,0.9977,0.9982,1.0011,1.0009,1.0012,1.0017,1.0045,1.0046,1.0046,1.004,1.004,1.004,0,0,0,0,0,0,0.987,0.9894,0.9898,0.9915,0.9929,0.9948,0.9955,0.9961,0.9973,0.9973,0.9986,0.999,1.0003,1.0011,1.0007,1.0028,1.0029,1.003,1.0022,1.0022,1.0022,1.002,1.0013,0,0,0,0,0,0.9869,0.9883,0.9902,0.9915,0.9922,0.9937,0.9945,0.9953,0.9967,0.9972,0.9984,0.9996,1.0008,1.0016,1.0028,1.0041,1.0044,1.0045,1.0045,1.0045,1.0046,1.0053,1.0053,1.0048,1.0048,1.0048,0,0,0.9868,0.9883,0.9891,0.9913,0.9925,0.9937,0.9942,0.9955,0.9964,0.9974,0.9988,0.9997,1.0011,1.0025,1.0031,1.0032,1.0048,1.0046,1.0046,1.0046,1.0053,1.0054,1.0054,1.0048,1.0048,1.0048,0,0,0.9873,0.9886,0.9898,0.9909,0.9927,0.9937,0.9939,0.9958,0.9965,0.9979,0.9987,0.9997,1.0018,1.0027,1.0035,1.0043,1.0047,1.0046,1.0046,1.0052,1.0053,1.0053,1.0056,1.0056,1.0047,1.0047,1.0047,0,0.9869,0.989,0.9903,0.9916,0.9925,0.9936,0.9947,0.9957,0.9977,0.9982,0.9983,1.0009,1.0019,1.0035,1.0037,1.0043,1.0045,1.0044,1.0052,1.0053,1.0053,1.0055,1.0056,1.0047,1.0047,1.0047,1.0047,0,0.9884,0.9898,0.9905,0.9925,0.9935,0.9947,0.9961,0.9969,0.9976,0.9985,0.9999,1.0012,1.0027,1.0031,1.0037,1.0047,1.0047,1.005,1.0051,1.0053,1.0056,1.0057,1.0046,1.0046,1.0046,1.0046,0,0,0.9883,0.991,0.9913,0.9922,0.9941,0.9951,0.9963,0.9979,0.9985,0.9998,1.0007,1.0024,1.0027,1.0036,1.0043,1.0048,1.0053,1.005,1.0051,1.005,1.0064,1.0062,1.0063,1.0056,1.0056,1.0057,1.0063,0,0.989,0.9913,0.9925,0.9942,0.9955,0.9965,0.9975,0.9987,0.9996,1.0006,1.0016,1.0028,1.003,1.0035,1.0041,1.0051,1.0056,1.0051,1.0064,1.0065,1.006,1.0064,1.0062,1.0068,1.0064,1.0064,1.0064,0,0.9902,0.9916,0.9935,0.9953,0.9958,0.9967,0.9982,0.9992,1.0006,1.0012,1.0021,1.0028,1.004,1.004,1.0055,1.0051,1.0057,1.0063,1.0063,1.0065,1.0065,1.0066,1.007,1.0071,1.0066,1.0066,1.0066,0,0.9899,0.9922,0.9936,0.9944,0.9965,0.9971,0.998,0.9993,1.0001,1.0014,1.0019,1.0032,1.0039,1.0048,1.0058,1.0057,1.0072,1.0073,1.0077,1.0076,1.0079,1.0079,1.0084,1.0083,1.0083,1.0083,1.0083,0,0.9905,0.9916,0.9935,0.9944,0.9956,0.9969,0.998,0.999,1.0002,1.0011,1.002,1.0029,1.0041,1.0051,1.0059,1.007,1.0073,1.0077,1.0079,1.0077,1.0076,1.0081,1.008,1.0083,1.0083,1.0083,1.0083,0,0.9904,0.9917,0.9933,0.9952,0.9957,0.9965,0.9981,0.9989,0.9998,1.001,1.0014,1.0028,1.004,1.0051,1.0066,1.0071,1.0083,1.0085,1.0078,1.0079,1.0082,1.0082,1.009,1.0092,1.009,1.009,1.009,0,0.9907,0.9916,0.9936,0.9944,0.9953,0.9965,0.9974,0.9986,0.9994,1.001,1.0016,1.0029,1.004,1.0059,1.007,1.0081,1.0084,1.0086,1.0086,1.0083,1.0084,1.0083,1.0084,1.0086,1.0086,1.0086,1.0086,0,0.9912,0.9918,0.9931,0.9946,0.9956,0.9968,0.998,0.9985,1.0,1.0008,1.0022,1.003,1.0047,1.0059,1.0072,1.0079,1.0085,1.0086,1.0087,1.0085,1.0081,1.0083,1.0078,1.0086,1.0086,1.0086,1.0086,1.0086,0.9913,0.9921,0.9936,0.995,0.9961,0.9972,0.998,0.9991,1.0002,1.0017,1.0023,1.0036,1.0049,1.0067,1.0075,1.0084,1.0085,1.0087,1.0088,1.0088,1.0087,1.0079,1.0086,1.0086,1.0087,1.0087,1.0087,0,0.9917,0.9928,0.994,0.9957,0.9968,0.9973,0.9986,0.9995,1.0006,1.0018,1.0029,1.0043,1.0055,1.0067,1.0079,1.0085,1.0087,1.0087,1.0087,1.0089,1.0086,1.0083,1.0085,1.0085,1.0085,1.0085,1.0085,1.0085,0.9921,0.9935,0.9943,0.9962,0.9971,0.9985,0.9992,1.0002,1.0012,1.0028,1.0038,1.0046,1.0058,1.0071,1.0081,1.0085,1.0088,1.0088,1.0091,1.0089,1.0089,1.0089,1.0087,1.0089,1.0089,1.0093,1.0093,1.0093]},{"header":{"parameterUnit":"m.s-1","parameterCategory":1,"la1":30.2991,"la2":30.254,"lo1":-89.0895,"lo2":-89.0444,"dy":0.0017,"dx":0.0017,"nx":28,"ny":28,"refTime":"2023-09-10T21:00:00:Z","depth":0,"parameterNumber":3,"parameterNumberName":"V-component_of_WINDS"},"data":[0,0,0,0,0,0,0,0,0,0,0,0,0,0,0,0,0,0,0,0,0,0,0,0,0,0,0,0,0,0,0,0,0,0,0,0,0,0,0,0,0,0,0,0,0,0,0,0,0,0,0,0,0,0,0,0,0,0,-0.0156,-0.0156,0,-0.0164,-0.0164,-0.0164,-0.0171,-0.0171,-0.0171,-0.0171,-0.018,-0.018,-0.018,0,0,0,0,0,0,0,0,0,0,0,0,0,-0.0149,-0.0149,-0.0156,-0.0156,-0.0156,-0.0164,-0.0164,-0.0164,-0.0171,-0.0171,-0.0171,-0.0172,-0.018,-0.018,-0.018,0,0,0,0,0,0,0,0,0,0,0,0,0,-0.0154,-0.0149,-0.0156,-0.0161,-0.0161,-0.0164,-0.0164,-0.0164,-0.0171,-0.0171,-0.0171,-0.0172,-0.018,-0.018,-0.018,-0.0179,0,0,-0.0181,-0.0181,0,0,0,0,0,0,0,0,-0.0154,-0.0154,-0.016,-0.0161,-0.0161,-0.0167,-0.0165,-0.0169,-0.0171,-0.0167,-0.0171,-0.0172,-0.0175,-0.0176,-0.0177,-0.0179,-0.018,-0.0181,-0.0181,-0.0181,-0.0181,0,0,0,0,0,0,0,-0.0153,-0.0154,-0.0159,-0.016,-0.0161,-0.0163,-0.0164,-0.0165,-0.0171,-0.0168,-0.0168,-0.0169,-0.0176,-0.0177,-0.0177,-0.018,-0.0181,-0.0181,-0.0181,-0.0181,-0.0182,-0.0182,0,0,0,0,0,0,-0.0152,-0.0154,-0.0159,-0.016,-0.0158,-0.0163,-0.0164,-0.0165,-0.0171,-0.0172,-0.0169,-0.0169,-0.0177,-0.0177,-0.0178,-0.0177,-0.0181,-0.0181,-0.0181,-0.0182,-0.0182,-0.0182,0,0,0,0,0,0,-0.0152,-0.0153,-0.0159,-0.0157,-0.0158,-0.0163,-0.0164,-0.0165,-0.0166,-0.0172,-0.0173,-0.0169,-0.0177,-0.0177,-0.0179,-0.0177,-0.0181,-0.0182,-0.0182,-0.0182,-0.0182,-0.0175,0,0,0,0,0,0,-0.0152,-0.0153,-0.0152,-0.0157,-0.0158,-0.0159,-0.0164,-0.0165,-0.0166,-0.0167,-0.0172,-0.0173,-0.0177,-0.0178,-0.0179,-0.0178,-0.0182,-0.0182,-0.0182,-0.0182,-0.0176,-0.0175,-0.0174,0,0,0,0,0,-0.0152,-0.015,-0.0152,-0.0152,-0.0157,-0.0159,-0.016,-0.0164,-0.0166,-0.0166,-0.0169,-0.0173,-0.0177,-0.0178,-0.0179,-0.0178,-0.0182,-0.0182,-0.0182,-0.0176,-0.0175,-0.0174,0,0,0,0,0,0,-0.0144,-0.015,-0.0153,-0.0152,-0.0155,-0.016,-0.016,-0.0163,-0.0165,-0.0166,-0.0171,-0.0172,-0.0173,-0.0176,-0.0177,-0.0177,-0.018,-0.018,-0.0176,-0.0175,-0.0174,-0.0174,-0.0182,0,0,0,0,0,-0.0143,-0.0144,-0.0149,-0.0148,-0.0149,-0.0154,-0.0155,-0.0158,-0.0162,-0.0163,-0.0167,-0.017,-0.0172,-0.0174,-0.0176,-0.0176,-0.0178,-0.0176,-0.0175,-0.0174,-0.0174,-0.0175,-0.0175,-0.0181,-0.0181,-0.0181,0,0,-0.0139,-0.0143,-0.0143,-0.0147,-0.0149,-0.0151,-0.0155,-0.0156,-0.0157,-0.0163,-0.0165,-0.0168,-0.0172,-0.0172,-0.0173,-0.0175,-0.0173,-0.0174,-0.0174,-0.0174,-0.0175,-0.0174,-0.0174,-0.0181,-0.0181,-0.0181,0,0,-0.0134,-0.0136,-0.0136,-0.0139,-0.0143,-0.0146,-0.0146,-0.0151,-0.0153,-0.0154,-0.0159,-0.0161,-0.0164,-0.0167,-0.0169,-0.0166,-0.0169,-0.0166,-0.0163,-0.0164,-0.0163,-0.0163,-0.0162,-0.0162,-0.0166,-0.0166,-0.0166,0,-0.0129,-0.0131,-0.0136,-0.0137,-0.0138,-0.0144,-0.0144,-0.0146,-0.0151,-0.0152,-0.0154,-0.0159,-0.0162,-0.0164,-0.0163,-0.0164,-0.0165,-0.0166,-0.0163,-0.0163,-0.0162,-0.0162,-0.0161,-0.0166,-0.0166,-0.0166,-0.0166,0,-0.0126,-0.0127,-0.0126,-0.013,-0.0132,-0.0133,-0.0138,-0.0139,-0.0142,-0.0145,-0.0147,-0.0151,-0.0155,-0.0156,-0.0159,-0.0158,-0.0159,-0.0162,-0.0165,-0.0161,-0.0161,-0.016,-0.0165,-0.0166,-0.0166,-0.0166,0,0,-0.0116,-0.0123,-0.0122,-0.0125,-0.013,-0.0131,-0.0132,-0.0135,-0.0137,-0.014,-0.0141,-0.0144,-0.0147,-0.0149,-0.0153,-0.0153,-0.0151,-0.0156,-0.0156,-0.0156,-0.0152,-0.015,-0.0149,-0.0154,-0.0153,-0.0153,-0.0151,0,-0.0111,-0.0113,-0.0118,-0.0118,-0.012,-0.0125,-0.0126,-0.013,-0.0133,-0.0135,-0.0139,-0.0141,-0.0145,-0.0146,-0.0147,-0.0151,-0.015,-0.0151,-0.0155,-0.0155,-0.0154,-0.0149,-0.0147,-0.0144,-0.0151,-0.0151,-0.0151,0,-0.0107,-0.0109,-0.011,-0.0115,-0.0116,-0.0117,-0.0121,-0.0123,-0.0127,-0.0129,-0.0132,-0.0136,-0.0138,-0.0141,-0.0144,-0.0145,-0.0147,-0.0149,-0.0149,-0.015,-0.0153,-0.015,-0.0144,-0.0143,-0.0151,-0.0151,-0.0151,0,-0.01,-0.0104,-0.0105,-0.0107,-0.0113,-0.0113,-0.0116,-0.012,-0.0122,-0.0126,-0.0127,-0.0131,-0.0133,-0.0136,-0.0141,-0.0143,-0.0144,-0.0147,-0.0147,-0.0147,-0.0147,-0.0147,-0.0141,-0.0148,-0.0148,-0.0148,-0.0148,0,-0.0095,-0.0095,-0.0102,-0.0103,-0.0104,-0.0109,-0.011,-0.0113,-0.0117,-0.0119,-0.0124,-0.0125,-0.0132,-0.0135,-0.0139,-0.0141,-0.0142,-0.0144,-0.0145,-0.0144,-0.0144,-0.0145,-0.0146,-0.0147,-0.0147,-0.0147,-0.0148,0,-0.0087,-0.0092,-0.0093,-0.0099,-0.0101,-0.0101,-0.0106,-0.0108,-0.0111,-0.0114,-0.0115,-0.0121,-0.0124,-0.013,-0.0135,-0.0137,-0.0139,-0.0141,-0.0138,-0.0138,-0.0138,-0.0138,-0.0133,-0.0133,-0.0139,-0.0139,-0.0139,0,-0.0084,-0.0084,-0.009,-0.0092,-0.0094,-0.0096,-0.0098,-0.0104,-0.0106,-0.0111,-0.0112,-0.0116,-0.0119,-0.0124,-0.013,-0.0134,-0.0136,-0.0134,-0.0136,-0.0135,-0.0136,-0.0136,-0.0136,-0.0133,-0.0133,-0.0133,-0.0133,0,-0.0077,-0.008,-0.0082,-0.0086,-0.0088,-0.0091,-0.0095,-0.0096,-0.0102,-0.0104,-0.0108,-0.011,-0.0115,-0.0119,-0.0124,-0.0128,-0.0132,-0.0132,-0.0132,-0.0131,-0.0129,-0.0131,-0.0136,-0.0132,-0.0132,-0.0133,-0.0133,-0.0133,-0.0072,-0.0073,-0.0077,-0.008,-0.0083,-0.0086,-0.0088,-0.0092,-0.0095,-0.0099,-0.0103,-0.0106,-0.0111,-0.0118,-0.0121,-0.0125,-0.0126,-0.0126,-0.0126,-0.0126,-0.0126,-0.0129,-0.0125,-0.0125,-0.0125,-0.0126,-0.0126,0,-0.0066,-0.0069,-0.0072,-0.0077,-0.0079,-0.0082,-0.0086,-0.0088,-0.0091,-0.0095,-0.0098,-0.0103,-0.0107,-0.0113,-0.0117,-0.0119,-0.0121,-0.012,-0.012,-0.0121,-0.0124,-0.0124,-0.0118,-0.0118,-0.0118,-0.0118,-0.0118,-0.0118,-0.0064,-0.0065,-0.0068,-0.0072,-0.0075,-0.0078,-0.008,-0.0084,-0.0087,-0.0091,-0.0095,-0.0098,-0.0103,-0.0108,-0.0112,-0.0114,-0.0116,-0.0114,-0.0116,-0.012,-0.012,-0.0121,-0.0121,-0.0114,-0.0114,-0.0113,-0.0113,-0.0113]}]]